TimeMST,TemperatureF,Dew PointF,Humidity,Sea Level PressureIn,VisibilityMPH,Wind Direction,Wind SpeedMPH,Gust SpeedMPH,PrecipitationIn,Events,Conditions,WindDirDegrees,DateUTC
12:15 AM,44.6,35.6,71,30.03,10.0,Calm,Calm,-,N/A,,Scattered Clouds,0,2013-01-29 07:15:00
12:35 AM,42.8,35.6,76,30.03,10.0,Calm,Calm,-,N/A,,Clear,0,2013-01-29 07:35:00
12:55 AM,42.8,35.6,76,30.03,10.0,Calm,Calm,-,N/A,,Clear,0,2013-01-29 07:55:00
1:15 AM,42.8,33.8,70,30.03,10.0,Calm,Calm,-,N/A,,Clear,0,2013-01-29 08:15:00
1:35 AM,42.8,33.8,70,30.03,10.0,Calm,Calm,-,N/A,,Clear,0,2013-01-29 08:35:00
1:55 AM,42.8,33.8,70,30.03,10.0,Calm,Calm,-,N/A,,Scattered Clouds,0,2013-01-29 08:55:00
2:15 AM,42.8,33.8,70,30.04,10.0,Calm,Calm,-,N/A,,Clear,0,2013-01-29 09:15:00
2:35 AM,42.8,32.0,66,30.04,10.0,Calm,Calm,-,N/A,,Clear,0,2013-01-29 09:35:00
2:55 AM,41.0,32.0,70,30.04,10.0,SW,5.8,-,N/A,,Clear,230,2013-01-29 09:55:00
3:15 AM,41.0,32.0,70,30.04,10.0,WSW,5.8,-,N/A,,Clear,240,2013-01-29 10:15:00
3:35 AM,41.0,33.8,76,30.05,10.0,WSW,4.6,-,N/A,,Clear,240,2013-01-29 10:35:00
3:55 AM,41.0,33.8,76,30.05,10.0,WSW,5.8,-,N/A,,Clear,250,2013-01-29 10:55:00
4:15 AM,41.0,32.0,70,30.05,10.0,West,4.6,-,N/A,,Clear,260,2013-01-29 11:15:00
4:35 AM,41.0,32.0,70,30.05,10.0,West,3.5,-,N/A,,Clear,270,2013-01-29 11:35:00
4:55 AM,39.2,32.0,75,30.05,10.0,Calm,Calm,-,N/A,,Clear,0,2013-01-29 11:55:00
5:15 AM,37.4,32.0,81,30.06,10.0,WSW,3.5,-,N/A,,Clear,240,2013-01-29 12:15:00
5:47 AM,37.4,32.0,81,30.07,20.0,West,3.5,-,N/A,,Partly Cloudy,260,2013-01-29 12:47:00
6:47 AM,37.4,30.2,75,30.09,20.0,Calm,Calm,-,N/A,,Partly Cloudy,0,2013-01-29 13:47:00
7:47 AM,35.6,30.2,81,30.10,30.0,ESE,4.6,-,N/A,,Partly Cloudy,120,2013-01-29 14:47:00
8:57 AM,41.0,32.0,70,30.12,45.0,Calm,Calm,-,N/A,,Partly Cloudy,0,2013-01-29 15:57:00
9:47 AM,44.6,30.2,57,30.14,45.0,Calm,Calm,-,N/A,,Partly Cloudy,0,2013-01-29 16:47:00
10:49 AM,46.4,30.2,53,30.14,45.0,Calm,Calm,-,N/A,,Partly Cloudy,0,2013-01-29 17:49:00
11:47 AM,50.0,28.4,43,30.13,45.0,Calm,Calm,-,N/A,,Partly Cloudy,0,2013-01-29 18:47:00
12:48 PM,53.6,24.8,33,30.12,45.0,WSW,4.6,-,N/A,,Partly Cloudy,250,2013-01-29 19:48:00
1:50 PM,53.6,21.2,28,30.09,45.0,WSW,9.2,-,N/A,,Scattered Clouds,240,2013-01-29 20:50:00
2:47 PM,53.6,24.8,33,30.07,45.0,SW,13.8,-,N/A,,Partly Cloudy,220,2013-01-29 21:47:00
3:47 PM,55.4,19.4,25,30.09,45.0,West,15.0,-,N/A,,Scattered Clouds,280,2013-01-29 22:47:00
4:47 PM,55.4,24.8,31,30.09,45.0,West,12.7,-,N/A,,Scattered Clouds,260,2013-01-29 23:47:00
5:47 PM,53.6,26.6,35,30.10,45.0,SW,8.1,-,N/A,,Scattered Clouds,230,2013-01-30 00:47:00
6:47 PM,51.8,33.8,50,30.12,20.0,SSW,6.9,-,N/A,,Scattered Clouds,210,2013-01-30 01:47:00
7:47 PM,51.8,32.0,47,30.14,20.0,SSW,4.6,-,N/A,,Scattered Clouds,210,2013-01-30 02:47:00
7:55 PM,50.0,32.0,50,30.14,10.0,SSW,4.6,-,N/A,,Mostly Cloudy,210,2013-01-30 02:55:00
8:15 PM,46.4,32.0,57,30.15,10.0,Calm,Calm,-,N/A,,Scattered Clouds,0,2013-01-30 03:15:00
8:35 PM,48.2,32.0,54,30.15,10.0,Calm,Calm,-,N/A,,Clear,0,2013-01-30 03:35:00
8:47 PM,48.2,32.0,54,30.15,20.0,Calm,Calm,-,N/A,,Scattered Clouds,0,2013-01-30 03:47:00
8:55 PM,48.2,32.0,54,30.16,10.0,SW,3.5,-,N/A,,Clear,230,2013-01-30 03:55:00
9:15 PM,48.2,32.0,54,30.17,10.0,West,3.5,-,N/A,,Clear,260,2013-01-30 04:15:00
9:35 PM,46.4,32.0,57,30.17,10.0,West,5.8,-,N/A,,Clear,260,2013-01-30 04:35:00
9:55 PM,46.4,32.0,57,30.17,10.0,Calm,Calm,-,N/A,,Clear,0,2013-01-30 04:55:00
10:15 PM,42.8,32.0,66,30.18,10.0,East,4.6,-,N/A,,Clear,100,2013-01-30 05:15:00
10:35 PM,42.8,33.8,70,30.19,10.0,East,5.8,-,N/A,,Scattered Clouds,100,2013-01-30 05:35:00
10:55 PM,42.8,35.6,76,30.20,10.0,ESE,5.8,-,N/A,,Scattered Clouds,110,2013-01-30 05:55:00
11:15 PM,42.8,35.6,76,30.21,10.0,SSE,4.6,-,N/A,,Scattered Clouds,150,2013-01-30 06:15:00
11:35 PM,41.0,33.8,76,30.21,10.0,Calm,Calm,-,N/A,,Scattered Clouds,0,2013-01-30 06:35:00
11:55 PM,41.0,33.8,76,30.22,10.0,East,4.6,-,N/A,,Clear,100,2013-01-30 06:55:00